Back to catalog

ONEWEB-0520

AliveCommunicationsPO
NORAD 54138·PAYLOAD·🇬🇧 United Kingdom

Launched Oct 22, 2022 from Satish Dhawan Space Centre

Loading…

Next Passes (next 24 hours)

TLE

FreshSource: CelesTrak SupGP

Epoch: Sep 14, 2026, 18:04 UTC

1 54138C 22138AB  26257.75329120 -.00002412  00000+0 -60308-2 0  2574
2 54138  87.9115 287.1282 0002016  86.2154 311.8410 13.19729208    10

Track ONEWEB-0520 in real time with AllMySat

Download on the App Store